Wind_Speed
12 12 11 11 12 12 13 11 11 11 10 10 10 11 12 14 14 15 15 15 16 16 15 15 15 15 15 16 16 15 14 12 11 12 14 15 16 17 17 18 17 16 13 12 11 11 11 11 11 11 11 11 11 11 12 13 14 15 16 15 14 14 14 14 14 14 14 15 16 17 18 18 18 17 16 14 12 11 11 11 11 12 13 14 14
13 13 11 11 11 11 12 11 10 10 10 9 10 10 11 13 13 14 14 15 15 14 15 15 14 15 17 17 17 15 13 12 11 12 15 16 17 18 18 19 18 16 15 13 12 12 12 11 11 11 11 11 11 11 13 13 14 15 15 15 14 14 14 14 14 14 14 15 15 15 17 18 18 19 19 18 15 11 10 9 9 10 11 11 11
13 13 11 11 11 11 11 11 10 10 9 8 9 9 10 11 12 12 13 13 13 14 14 14 14 15 16 17 17 15 13 11 11 12 14 16 17 19 19 19 18 17 16 14 13 12 12 12 12 11 10 10 10 12 13 13 14 14 14 14 14 15 14 14 14 14 13 14 13 13 14 15 17 17 18 19 19 17 14 12 10 9 10 10 10
14 13 13 11 11 11 11 11 10 10 9 8 8 9 10 10 11 11 11 11 11 12 12 13 13 14 15 16 16 14 13 11 10 11 13 14 16 18 19 18 18 17 16 15 14 13 12 13 12 11 10 9 10 11 12 13 13 13 14 14 14 14 13 13 13 14 13 13 13 13 13 14 15 14 14 17 20 20 19 17 13 11 10 10 10
15 14 14 13 12 11 11 11 10 9 9 9 9 9 10 10 11 11 11 10 10 10 10 11 12 13 14 15 15 13 12 10 10 11 12 13 15 18 18 18 18 17 16 15 14 13 13 12 12 11 10 9 10 11 12 12 13 13 13 14 13 13 13 13 12 13 13 12 13 13 12 12 13 13 13 16 20 20 19 19 17 14 12 11 11
15 14 14 13 12 11 11 10 10 9 9 9 9 9 10 10 11 11 12 11 10 10 9 10 11 12 14 14 14 12 11 10 11 12 12 13 15 17 18 18 18 17 16 15 14 13 13 13 12 12 10 9 10 11 11 12 12 13 14 14 14 14 14 13 13 12 11 10 11 11 11 11 13 15 15 16 19 20 19 19 18 17 16 14 14
16 15 14 13 12 12 11 10 10 10 9 8 8 9 9 9 10 11 11 11 10 10 9 9 10 12 13 13 13 12 11 10 12 13 14 15 16 17 18 18 18 18 16 15 15 14 13 13 13 12 11 10 11 11 12 12 13 14 15 15 15 16 16 15 15 14 12 11 12 11 10 10 13 16 17 17 19 19 20 19 19 18 17 17 15
17 15 15 14 13 12 12 11 11 10 9 8 8 8 8 9 10 10 10 10 10 9 8 8 9 11 12 12 12 12 12 13 15 16 16 17 17 18 18 19 19 19 17 16 15 15 14 14 14 13 12 13 13 13 14 15 15 16 17 17 17 18 17 18 18 17 15 15 15 14 13 13 14 16 18 19 19 20 20 20 20 20 19 18 16
17 16 15 14 13 13 13 12 11 11 10 8 7 7 7 8 8 8 9 10 9 7 7 8 9 10 11 12 12 12 13 15 16 17 18 17 18 18 19 19 20 19 18 17 16 16 16 15 15 15 14 15 15 16 17 17 18 18 18 18 18 18 18 18 18 17 17 17 17 17 17 17 16 18 20 20 21 21 22 21 21 21 20 19 18
17 16 15 14 13 13 12 12 11 11 10 8 7 7 6 7 7 7 8 9 8 7 7 7 8 9 9 11 12 12 13 15 16 17 18 18 18 18 19 19 19 19 19 17 17 17 17 17 16 16 16 16 17 18 18 18 18 18 18 18 18 18 17 17 17 17 18 17 17 18 18 17 18 20 20 21 21 22 22 23 22 22 21 20 19
18 17 15 14 13 11 11 10 10 10 9 8 7 7 6 6 6 7 7 7 7 7 7 7 8 8 9 10 12 12 13 14 15 16 16 17 17 18 18 19 19 19 18 17 17 17 17 17 17 16 16 17 17 17 17 17 17 17 17 18 18 17 17 17 17 18 18 18 18 18 18 18 19 20 20 21 21 22 22 23 23 22 21 21 20
19 18 16 14 13 12 11 10 9 8 8 7 7 6 5 6 6 6 6 6 6 6 6 7 8 8 9 10 11 12 12 13 13 14 14 15 16 17 18 19 19 18 18 17 17 17 17 17 17 16 16 17 17 17 17 16 16 17 17 17 17 17 17 17 17 18 18 18 19 18 18 19 20 20 20 21 21 22 22 22 23 23 22 22 22
19 19 17 15 13 12 11 9 8 8 8 7 6 5 5 5 5 5 5 5 5 6 6 6 8 9 9 9 10 11 11 12 12 12 13 14 15 16 17 18 18 18 18 17 17 17 17 17 16 16 16 16 16 16 16 16 16 16 16 17 16 17 16 16 17 17 18 18 18 18 18 19 20 20 20 20 21 21 21 22 22 23 22 22 23
19 19 18 16 14 12 11 10 9 8 8 7 6 5 5 5 5 5 5 5 4 4 4 5 8 9 9 8 9 9 10 10 10 10 11 13 14 15 16 17 18 18 18 18 17 17 17 16 16 16 16 15 15 15 15 15 15 15 16 16 16 16 15 15 15 16 17 17 17 17 18 19 19 19 19 19 19 19 20 20 20 22 22 22 22
18 19 18 17 16 14 12 11 10 9 9 9 7 7 7 7 6 6 6 6 5 4 4 5 7 7 8 8 8 8 9 9 9 10 11 12 13 14 15 16 17 18 18 18 18 17 17 16 16 15 15 15 15 14 14 14 14 14 14 14 14 14 15 14 14 15 15 15 16 16 17 17 18 18 18 18 18 18 19 18 18 19 20 21 21
17 19 18 18 17 15 15 14 13 11 10 9 9 10 10 9 8 7 8 7 6 6 4 4 6 7 6 6 6 7 8 8 9 10 10 11 12 13 14 15 16 17 17 17 18 18 17 17 16 15 15 15 14 14 14 14 13 13 13 13 13 14 14 13 13 13 14 14 15 16 17 18 18 18 18 18 18 19 19 19 18 18 19 19 19
17 18 18 17 17 16 15 15 15 13 11 10 10 10 10 9 8 8 8 8 7 6 6 5 6 7 5 5 5 5 6 7 8 9 9 9 11 12 12 14 14 15 16 16 16 17 17 17 16 15 15 14 14 14 13 13 13 12 12 13 13 13 13 12 12 13 13 14 15 16 18 18 18 18 18 18 19 19 20 20 18 19 20 19 19
17 18 18 17 17 17 16 15 15 15 13 12 11 11 10 9 9 8 8 8 7 6 6 6 6 6 5 4 4 4 5 6 7 8 8 8 9 10 10 11 12 13 14 15 15 15 16 16 16 16 15 15 14 14 13 13 12 12 12 12 12 12 12 12 12 13 13 13 14 15 16 16 16 17 17 18 18 16 17 18 17 19 20 20 20
16 17 18 17 16 15 14 15 16 16 15 13 13 12 11 11 10 8 8 9 7 7 7 6 6 5 4 3 3 2 3 4 6 6 7 7 7 8 8 9 10 11 12 13 13 14 15 15 15 15 15 15 14 14 13 13 12 12 12 12 12 11 11 11 12 12 12 13 13 14 14 14 15 15 15 16 16 13 13 14 15 18 19 18 18
14 16 17 15 15 14 13 15 16 17 17 16 14 13 12 12 10 9 10 9 8 8 7 6 6 4 4 2 1 1 1 2 4 5 6 6 6 6 7 8 9 10 11 11 12 13 13 14 14 13 14 13 13 13 13 13 13 13 12 12 11 10 11 11 11 12 12 13 13 13 13 13 14 14 14 14 15 14 13 12 12 14 14 14 15
15 15 14 13 17 18 17 17 16 17 19 19 17 15 14 14 12 11 11 10 9 9 8 7 6 5 4 2 1 1 1 1 3 4 4 4 4 5 5 6 7 8 9 10 10 11 11 12 12 12 12 12 12 12 12 13 13 13 13 12 10 10 12 11 11 11 12 12 12 13 13 13 14 13 13 14 15 14 14 12 10 9 9 9 10
16 16 14 12 15 16 17 17 16 18 20 20 20 18 17 16 14 14 13 12 11 10 9 8 7 7 6 4 3 3 3 2 2 3 3 3 3 3 4 5 6 6 7 8 9 9 10 10 11 11 11 11 11 11 12 12 12 13 12 11 11 12 12 11 11 11 11 11 12 13 13 13 13 13 13 14 14 14 13 12 11 10 9 8 8
17 16 15 14 14 15 16 16 18 20 18 18 20 20 19 17 16 16 14 13 12 11 10 9 9 8 8 6 5 5 4 4 3 4 4 4 3 2 2 3 5 5 5 7 7 8 9 8 9 9 10 10 9 11 11 12 12 13 12 12 12 12 12 11 11 11 11 12 13 14 13 14 14 15 15 15 15 15 14 13 12 11 10 9 9
17 17 16 16 16 17 17 14 15 17 16 18 21 20 19 18 17 17 15 15 13 13 12 11 10 10 10 8 7 6 5 5 5 5 5 5 4 2 1 2 4 4 4 4 6 8 8 8 8 8 8 8 9 10 11 11 12 12 12 12 12 12 12 12 12 12 13 13 13 13 13 15 15 17 17 16 17 17 17 16 15 14 13 12 12
17 17 17 16 17 18 18 16 14 14 16 19 22 21 20 19 18 18 17 16 15 14 13 12 12 12 11 9 8 7 6 7 6 6 6 6 4 3 2 2 3 3 3 3 6 7 8 9 9 8 8 9 8 10 10 10 11 11 11 12 12 12 12 12 12 13 13 13 13 12 12 13 14 16 17 16 16 16 17 17 17 17 16 16 15
18 17 17 17 18 19 19 18 17 18 18 18 20 21 21 21 20 19 18 17 17 16 14 13 13 13 13 11 9 7 7 8 7 7 7 6 5 4 3 2 1 3 3 3 5 6 7 9 9 8 8 8 8 9 9 9 10 10 11 12 11 11 11 11 11 12 12 12 13 12 12 12 11 13 14 15 16 15 15 16 15 16 16 16 16
17 17 17 17 18 19 20 19 18 21 21 19 19 19 22 23 22 22 20 20 19 18 16 15 15 15 15 12 9 8 9 9 8 9 8 7 7 6 5 3 1 3 4 3 3 4 6 7 8 7 7 7 8 9 8 9 10 10 10 11 11 10 9 9 9 9 10 11 11 11 11 11 10 10 11 14 16 16 15 15 15 16 15 15 16
17 16 16 16 17 18 19 20 20 21 22 21 20 19 20 21 22 23 22 22 21 19 19 18 17 17 17 13 10 10 10 10 11 11 10 9 8 7 6 3 2 3 3 2 2 3 3 5 6 5 6 6 7 7 7 7 8 8 8 10 11 11 11 11 10 10 10 10 10 11 11 11 10 9 10 11 14 15 15 14 16 17 15 14 14
17 16 16 16 16 17 18 19 21 22 22 21 21 20 19 18 22 22 20 23 23 22 22 20 19 18 18 16 12 11 12 11 12 14 12 11 10 8 7 5 4 4 2 1 3 3 1 4 4 3 5 5 5 5 4 6 7 7 9 10 11 12 12 12 11 11 12 12 11 11 11 10 9 9 10 10 11 13 13 13 15 16 15 14 13
17 17 17 17 17 18 19 19 20 21 22 22 21 21 20 21 24 23 21 22 22 23 22 21 21 18 17 17 14 13 13 12 13 15 13 12 11 9 9 7 6 5 4 3 5 5 2 3 2 2 6 5 4 3 3 7 6 6 10 10 11 11 11 11 11 11 12 12 12 12 11 11 11 11 11 11 11 12 12 12 13 15 16 16 14
17 17 17 17 18 19 20 21 21 21 22 23 22 22 22 22 24 24 25 22 20 22 20 20 22 20 20 18 15 14 14 13 13 14 15 14 13 10 8 8 8 8 7 5 5 8 4 2 3 1 6 5 6 4 3 6 4 5 8 9 9 8 8 10 10 12 12 13 13 13 12 12 12 12 12 12 12 12 13 13 13 14 16 15 13
18 17 17 18 19 20 21 22 22 22 23 24 24 24 23 21 22 25 28 23 19 20 18 21 22 20 22 20 17 17 16 15 14 14 14 14 14 10 8 10 12 10 8 6 7 12 7 3 5 0 5 4 6 4 2 3 2 5 7 5 6 6 6 8 10 11 11 12 12 12 12 12 12 12 12 12 12 13 13 14 14 14 14 13 13
18 18 19 19 19 19 20 22 23 23 24 25 25 25 24 21 22 25 27 22 19 20 17 19 20 19 20 19 18 17 16 16 15 16 15 13 13 11 10 13 14 12 10 8 10 14 11 6 7 3 2 1 3 2 1 1 2 4 4 2 3 4 5 6 9 10 9 10 11 11 11 11 11 11 12 12 12 13 13 14 14 14 14 13 13
20 20 20 19 19 18 20 21 23 24 25 26 26 27 26 23 25 27 26 22 21 20 18 16 17 17 17 16 17 16 16 17 16 16 17 15 14 13 12 13 14 14 14 11 12 16 13 8 8 8 7 4 1 2 3 0 1 1 0 1 2 3 5 7 8 9 9 10 10 10 11 11 11 11 12 12 13 14 14 14 14 14 14 13 13
22 21 20 19 19 18 19 21 22 24 25 27 27 28 27 25 25 24 24 21 18 21 22 20 18 16 16 16 17 17 17 17 17 18 17 16 14 14 14 12 12 13 16 16 15 16 13 8 8 9 7 2 1 4 4 1 2 3 2 1 2 2 4 6 8 8 9 9 9 9 10 11 11 12 12 13 14 14 14 14 14 14 14 13 13
24 22 21 20 20 18 19 19 21 23 25 26 27 27 26 25 24 22 23 20 19 24 23 21 19 15 16 17 16 19 19 17 17 17 17 16 14 15 14 12 11 13 17 18 15 13 9 8 8 6 3 3 4 4 4 3 5 5 3 2 1 2 4 6 6 7 7 7 8 9 9 10 11 12 13 14 14 14 14 14 14 14 14 13 13
25 23 22 22 20 18 19 19 20 22 23 26 26 26 27 27 25 24 24 20 20 24 22 20 20 19 20 19 19 21 22 21 19 18 19 16 15 15 13 10 10 11 14 15 13 9 7 8 8 7 7 7 6 4 6 6 6 5 3 1 1 3 3 4 4 5 6 6 7 8 8 9 10 11 12 13 13 14 14 14 14 14 14 13 13
28 26 24 23 21 19 20 20 20 21 22 25 25 27 30 29 25 24 24 22 23 23 19 18 21 23 24 22 23 22 20 21 20 20 20 17 15 14 11 12 13 13 11 11 12 10 8 10 11 10 9 7 6 5 7 8 7 5 4 2 2 2 2 2 3 4 4 5 7 7 8 9 10 11 11 12 13 13 14 14 13 13 13 14 14
30 28 26 25 23 20 21 21 20 21 22 24 25 28 29 25 24 26 25 25 27 26 24 23 23 26 24 19 20 20 18 17 16 16 18 17 15 15 15 15 17 15 13 12 12 12 12 13 12 11 10 8 5 5 7 7 6 6 4 3 2 1 0 1 2 3 4 5 6 7 8 9 10 11 11 12 13 14 14 14 14 14 15 15 15
31 30 28 26 24 22 22 22 22 22 23 24 26 28 27 23 26 29 27 26 28 28 27 25 23 25 22 20 21 21 19 18 14 13 17 18 16 18 19 19 18 17 15 13 13 15 15 14 12 10 11 11 9 7 7 5 5 6 6 4 4 3 2 2 2 2 3 5 6 8 9 10 11 11 12 13 13 14 14 14 14 14 15 15 15
31 32 30 28 26 23 23 23 22 23 24 25 26 26 27 25 28 31 28 27 28 28 28 25 23 23 21 21 23 23 22 20 18 19 21 21 20 20 21 21 20 17 15 14 16 17 15 13 12 11 11 10 11 11 9 6 5 6 7 7 6 4 3 3 2 3 4 6 7 8 9 10 11 11 12 13 13 14 14 14 14 14 15 15 15
32 33 32 30 28 25 24 24 23 24 24 26 25 25 29 27 28 31 27 25 30 31 28 24 22 23 24 21 19 21 21 20 22 24 25 24 22 22 21 20 19 17 18 18 17 16 14 13 13 13 12 9 9 10 10 8 6 5 5 6 6 5 4 4 4 4 5 6 7 7 9 10 11 12 12 13 13 13 14 14 15 15 15 16 17
32 33 33 31 29 26 26 25 24 25 24 26 25 26 32 29 27 29 25 25 31 28 25 24 24 25 25 20 17 19 19 19 21 21 22 22 21 20 19 18 18 17 18 17 16 15 15 15 12 9 11 11 9 9 10 8 6 6 5 5 6 6 5 6 6 6 6 6 6 8 9 10 11 12 12 12 12 13 13 14 14 15 16 17 18
33 34 35 33 32 29 28 27 26 26 25 28 27 29 33 29 27 28 26 28 29 25 24 26 24 23 24 20 18 20 19 20 20 18 18 19 19 17 15 16 16 15 15 15 17 17 16 16 13 8 8 9 10 10 10 9 6 6 5 5 6 6 6 7 7 6 6 5 6 8 9 10 11 10 10 11 11 12 12 13 14 15 16 17 18
36 35 36 35 34 31 29 28 27 27 28 29 28 31 34 31 30 30 29 31 30 27 28 28 24 23 24 22 21 21 21 20 20 19 18 18 17 15 14 14 15 16 15 16 18 18 16 14 12 10 8 7 7 8 10 9 7 6 6 5 5 7 7 6 6 5 6 6 6 7 8 9 9 9 9 9 10 10 11 12 13 14 16 17 18
37 36 36 36 35 33 30 29 28 28 30 30 29 33 34 30 31 33 33 34 33 31 30 30 28 26 23 23 24 24 24 22 21 21 19 18 17 16 15 15 17 19 18 18 18 17 16 15 12 10 8 7 6 6 7 7 7 7 7 6 6 6 6 6 6 5 6 6 6 6 6 7 7 7 8 8 9 10 11 12 13 14 15 16 17
38 37 37 37 35 33 31 29 29 29 31 31 31 32 31 28 30 32 32 32 32 31 29 28 27 25 23 25 26 25 25 23 22 22 20 19 18 17 17 18 21 21 20 19 18 17 16 15 13 11 9 8 7 6 5 5 6 7 7 7 7 7 6 6 7 6 6 5 6 5 5 5 5 5 6 7 9 10 10 11 12 13 14 15 16
38 38 38 37 36 34 32 30 30 31 31 30 30 31 29 29 32 31 30 32 32 29 26 25 25 25 25 27 27 26 25 24 22 22 22 21 20 19 21 23 23 22 21 19 17 17 15 14 13 12 10 9 8 7 5 4 4 5 6 6 7 8 7 7 6 6 6 5 5 5 3 3 4 5 6 7 9 9 10 10 12 12 13 14 16
37 38 37 36 35 33 32 31 30 31 31 29 30 32 32 33 33 31 30 31 30 26 24 25 25 25 27 27 27 27 26 26 23 23 23 22 22 23 24 24 23 22 21 20 18 17 15 14 12 12 11 9 8 7 4 4 3 4 5 6 7 7 6 6 5 4 4 4 5 4 2 2 3 5 6 7 8 8 9 9 10 11 12 14 15
35 36 36 35 35 34 33 32 31 31 31 30 31 33 34 34 34 32 31 30 29 28 28 26 24 25 28 28 28 28 28 27 26 25 25 25 25 26 25 24 23 22 21 20 19 17 16 14 12 12 10 8 7 6 4 3 2 2 5 6 6 6 5 4 3 3 2 2 3 3 2 2 3 5 6 7 8 8 8 9 10 11 12 13 14
33 35 36 35 35 35 34 34 32 32 32 31 31 32 33 33 35 34 32 31 31 32 31 26 25 27 29 28 28 29 28 28 27 27 28 29 28 27 26 25 24 23 22 20 18 17 15 14 12 11 10 8 6 4 3 2 2 4 6 7 6 6 5 4 4 4 4 3 2 2 2 3 3 5 6 7 7 7 8 9 10 11 12 14 14
Wind_Direction
162 150 143 139 134 129 124 123 116 110 105 97 89 84 88 95 102 106 105 105 102 98 93 88 85 77 68 62 56 53 58 56 48 46 45 46 47 48 51 54 54 56 62 73 83 87 88 84 78 73 71 71 71 71 68 67 65 64 65 62 60 61 64 66 68 69 68 65 63 60 57 53 52 48 41 39 43 49 53 55 52 51 56 57 55
164 152 146 143 137 131 127 124 118 115 109 100 95 91 88 91 97 100 101 103 98 95 91 87 81 70 61 54 49 48 50 51 50 49 47 48 50 50 52 53 56 61 66 71 79 84 87 85 79 71 65 63 63 64 64 64 63 63 65 64 58 55 56 60 62 62 64 63 60 57 57 57 55 51 46 41 37 40 42 43 41 44 52 53 50
167 152 148 146 140 137 131 128 128 122 114 107 101 95 89 89 94 96 94 94 92 90 87 82 75 65 57 50 45 43 44 48 51 49 46 48 50 51 53 54 57 65 70 73 78 82 84 84 80 73 65 59 57 58 60 60 62 62 63 62 56 52 52 54 54 55 57 58 57 53 55 58 57 53 48 40 39 46 46 40 34 34 40 39 35
167 154 151 151 148 144 137 135 135 127 122 120 109 97 89 88 89 91 90 87 87 86 83 78 70 61 53 47 43 43 49 53 51 49 46 45 46 51 55 56 60 66 72 76 78 81 82 83 81 77 70 61 55 55 56 55 56 56 58 58 54 51 49 50 50 51 53 54 53 52 55 56 57 55 43 35 39 46 47 44 42 38 33 27 22
161 157 154 154 154 149 140 138 136 130 128 123 112 103 95 91 91 90 90 90 91 88 83 76 68 59 49 43 38 42 58 63 57 52 47 42 44 51 55 58 62 66 72 77 80 82 83 84 84 83 77 68 60 56 55 53 51 50 52 54 49 46 45 46 47 49 51 52 51 55 60 56 52 50 42 35 35 37 42 44 46 46 41 34 29
159 159 156 155 156 150 144 142 139 133 129 125 116 110 104 98 94 92 92 94 97 96 91 78 67 57 47 40 35 44 66 68 58 51 46 45 50 53 55 58 62 65 71 76 80 82 85 87 87 87 83 75 66 62 58 55 52 50 50 48 45 43 42 43 44 47 49 47 49 57 62 57 46 45 44 33 28 33 41 44 46 47 46 43 40
161 161 159 158 158 153 148 145 141 137 135 132 122 110 106 102 97 94 93 95 102 107 101 84 68 56 46 41 37 50 66 64 57 54 54 56 56 56 57 59 62 65 69 74 78 81 85 87 88 87 84 77 71 68 64 60 57 54 51 48 47 46 45 44 43 45 47 45 44 48 52 47 35 33 33 28 28 36 42 44 46 47 47 46 44
163 163 163 161 160 155 152 152 147 144 143 139 128 112 106 104 99 97 93 95 103 112 108 89 71 58 49 45 48 60 66 64 61 59 60 61 59 57 58 59 62 65 69 73 78 81 83 85 85 84 82 78 75 73 69 66 62 59 57 54 52 50 49 48 46 47 48 45 41 42 42 37 28 27 29 33 37 38 42 44 46 47 47 47 46
165 165 165 164 162 159 159 160 156 152 150 145 135 121 114 110 104 100 96 99 105 109 106 90 73 60 56 57 60 65 67 65 62 61 60 59 58 57 57 58 61 65 69 74 79 81 82 83 83 81 79 78 77 76 73 70 67 65 63 60 57 54 53 51 50 51 49 45 43 45 46 42 38 37 35 37 39 37 39 41 43 46 46 45 45
166 167 168 166 165 164 163 166 164 158 156 151 142 133 124 117 112 107 103 105 107 107 102 90 76 66 65 69 69 66 66 65 63 62 60 57 56 57 56 58 61 64 69 74 80 83 84 83 82 81 80 81 79 78 75 73 71 68 65 63 59 56 54 51 51 52 50 48 49 50 49 46 43 42 39 37 37 37 37 37 39 43 45 44 42
168 169 171 169 171 169 168 174 172 162 156 151 146 141 133 126 122 117 114 110 110 110 101 91 80 72 74 74 71 64 64 65 65 65 60 56 55 56 55 56 60 64 68 73 80 84 86 85 84 84 84 83 81 80 77 74 71 67 64 60 58 55 52 49 49 50 50 50 52 52 49 45 44 42 40 38 37 37 38 37 37 38 41 42 40
171 172 171 173 175 174 175 180 177 169 163 154 152 148 140 136 131 127 122 116 115 112 103 95 86 79 80 76 71 65 64 66 68 67 62 58 55 55 55 55 59 64 67 71 77 82 84 86 87 87 85 84 82 80 77 74 70 65 62 58 56 53 50 48 47 49 49 49 50 50 47 45 44 43 41 38 37 36 37 36 35 35 36 39 39
174 174 172 176 178 179 180 180 178 177 174 165 163 158 154 149 140 141 136 128 121 110 104 99 94 89 84 78 72 68 67 68 68 67 62 58 56 55 55 55 58 64 67 69 73 77 80 83 84 84 84 84 82 80 76 73 69 65 62 59 57 55 52 49 47 48 48 48 48 47 45 44 44 43 41 39 37 36 37 35 35 34 33 34 36
177 176 173 177 180 184 186 186 183 182 186 179 178 175 169 167 157 158 155 145 130 113 111 104 99 95 89 78 69 67 67 69 67 64 59 55 55 55 56 57 60 66 69 70 72 75 78 80 81 82 82 82 80 78 75 71 68 65 63 61 60 59 56 53 50 49 49 49 49 48 47 46 44 44 44 43 40 37 37 37 36 36 33 31 32
180 180 177 179 182 186 191 194 191 190 194 185 185 192 186 183 177 175 173 165 150 133 129 116 105 97 92 79 64 61 62 66 63 58 54 53 55 57 58 59 63 68 72 72 74 76 79 81 81 82 82 81 80 77 75 73 70 67 66 65 63 63 61 57 54 52 51 51 52 53 53 52 50 49 48 46 43 41 40 38 38 37 35 31 31
180 184 184 184 184 189 195 197 196 196 195 189 193 197 190 186 186 184 181 177 164 151 148 138 118 110 102 84 69 58 55 60 60 57 54 54 58 59 60 61 65 70 74 76 76 78 80 82 83 83 83 82 81 80 79 76 74 72 69 68 65 64 63 59 57 56 55 53 54 56 57 55 54 56 53 48 45 42 38 36 38 37 35 33 32
177 186 190 191 190 191 198 199 199 200 199 199 202 199 190 186 190 189 186 181 172 166 162 155 135 126 117 89 74 59 56 61 61 60 57 59 61 63 63 63 67 71 75 78 78 79 80 82 84 84 84 83 83 81 80 78 74 72 69 66 63 61 60 57 55 57 56 55 54 56 59 56 53 56 55 51 47 43 36 32 37 36 33 32 32
177 187 193 199 198 194 197 201 203 202 203 202 203 202 199 197 192 189 192 189 181 180 173 163 150 139 129 96 76 61 59 66 68 66 63 65 66 67 67 66 69 73 77 79 80 80 82 82 83 83 82 81 81 80 78 76 72 68 66 63 60 58 57 54 53 54 54 53 54 55 58 58 55 54 53 54 53 51 47 40 41 40 34 31 30
184 192 198 201 201 201 199 202 205 203 205 203 205 207 204 204 199 200 202 199 196 190 183 173 163 150 136 104 73 65 63 73 81 76 73 74 75 73 72 71 73 77 79 80 80 81 82 83 83 82 81 80 79 79 78 75 72 68 65 61 57 56 55 53 51 52 50 49 50 51 51 51 52 51 47 48 50 50 55 52 50 48 41 35 33
196 201 206 195 189 201 201 207 211 204 206 206 208 211 207 207 206 210 207 207 206 194 191 186 177 168 153 128 64 50 70 85 92 89 87 86 86 82 77 78 79 81 82 81 80 80 83 84 86 85 84 83 82 82 81 78 74 70 65 60 56 55 55 52 50 49 47 47 46 47 46 43 45 45 38 37 39 38 44 48 50 51 47 42 43
212 214 215 192 185 199 202 210 219 209 207 208 210 212 211 212 212 210 208 214 209 198 198 197 193 185 178 179 230 237 216 130 106 101 101 99 92 86 82 83 84 85 83 83 81 79 83 85 86 88 86 85 84 83 81 78 73 69 65 61 58 55 55 52 51 50 50 50 49 49 44 41 42 41 36 31 33 35 36 38 38 40 37 34 39
220 223 223 209 199 210 212 208 211 216 212 210 211 211 214 214 215 215 211 215 213 209 207 203 205 197 194 202 225 231 220 210 148 129 129 123 107 94 88 89 91 89 84 83 83 77 76 81 85 86 85 82 81 80 78 76 73 69 66 63 59 56 57 55 54 54 54 54 54 51 43 40 41 40 38 33 31 32 31 30 30 28 22 16 15
223 226 226 224 218 222 227 214 207 217 213 213 220 214 216 217 215 218 215 216 217 218 214 211 216 210 208 211 220 227 221 217 193 167 166 161 152 144 105 102 103 95 88 84 81 75 70 72 80 83 82 79 77 77 75 74 72 69 67 62 59 58 59 58 56 54 53 53 54 54 48 45 45 46 45 41 36 31 30 27 25 23 18 12 5
229 231 229 228 226 225 232 228 220 221 201 207 228 223 219 220 217 219 218 220 222 222 219 219 224 221 218 218 220 223 224 225 209 187 181 179 175 182 172 135 128 114 96 90 85 80 74 68 72 81 81 75 71 72 71 71 69 66 63 58 57 58 58 58 56 54 52 51 52 51 49 50 50 51 50 46 44 40 38 34 30 28 24 18 9
237 237 235 231 229 228 229 227 227 227 206 204 226 229 223 222 220 218 220 222 223 223 221 224 229 225 221 221 221 220 223 229 220 196 187 187 180 189 205 184 158 130 95 88 95 91 80 69 71 77 77 72 69 73 73 70 66 60 57 55 56 56 57 57 54 53 50 48 49 43 38 41 42 48 50 45 45 44 41 38 33 31 31 31 25
241 240 238 235 231 230 230 228 222 223 225 220 226 229 224 226 224 220 221 223 224 224 223 224 225 222 221 222 220 220 224 229 224 201 194 194 185 189 199 210 195 108 94 94 104 104 88 76 79 80 74 73 73 76 74 67 60 53 51 52 51 50 51 52 50 49 47 44 42 36 29 27 29 41 49 46 45 43 43 41 34 30 32 33 29
245 243 240 238 233 229 229 232 227 222 228 230 231 229 224 228 230 226 224 225 226 225 222 222 222 219 221 220 216 223 227 226 218 203 200 197 187 186 179 185 181 86 89 94 104 108 89 81 90 91 83 79 77 74 69 66 60 51 48 45 37 34 36 36 35 34 35 33 26 21 17 12 12 23 35 43 47 45 46 47 42 36 34 37 35
245 245 243 241 237 232 229 230 232 230 230 231 232 230 226 230 236 235 229 228 229 226 224 223 222 220 219 216 217 224 225 224 215 204 201 194 185 180 177 180 162 120 93 70 103 111 92 88 92 94 92 89 83 71 59 62 58 44 39 35 26 24 25 21 17 16 14 12 8 6 7 5 7 12 19 33 43 46 47 48 50 47 36 36 42
240 242 243 243 242 239 235 232 233 234 234 232 230 229 224 218 234 244 234 229 227 224 225 224 223 226 225 221 224 227 223 223 213 204 202 194 185 182 188 189 177 174 169 166 164 167 140 94 89 72 74 86 86 68 35 44 49 32 30 29 23 21 20 17 15 13 9 8 10 13 16 19 25 28 26 29 36 41 42 43 50 54 41 33 36
236 237 239 240 243 244 244 241 238 237 236 235 231 229 222 208 223 241 239 234 229 228 228 222 222 223 226 229 229 228 224 221 212 205 203 197 191 194 204 198 190 210 225 215 195 194 179 104 125 37 47 58 56 58 23 29 42 35 29 20 15 18 16 13 12 10 10 16 24 30 33 38 41 41 40 40 40 41 41 41 44 49 47 40 33
233 235 237 238 240 243 246 246 243 239 236 238 234 230 226 213 214 227 237 239 228 230 232 228 227 217 220 231 225 222 223 220 212 206 206 203 202 208 221 213 202 218 236 239 214 198 185 130 178 29 27 24 25 57 59 20 39 46 22 9 11 18 13 9 7 8 12 21 30 35 39 43 44 44 45 45 44 43 41 39 37 36 39 36 27
234 236 237 239 240 240 243 245 245 241 236 237 236 231 228 216 211 222 235 239 227 227 225 226 236 228 223 228 222 218 215 215 214 212 212 209 209 216 226 218 209 215 233 246 221 202 191 175 184 67 358 354 7 31 65 11 58 40 5 3 19 12 10 9 2 4 14 25 32 36 40 43 44 42 41 41 39 37 34 31 29 27 27 25 20
239 237 237 237 238 237 238 240 241 240 237 236 233 232 230 214 208 221 231 234 227 229 228 226 233 231 230 226 218 219 210 209 215 215 217 215 216 220 219 216 215 224 240 246 225 209 197 188 190 200 240 218 355 3 74 43 59 18 349 29 30 3 10 3 358 11 25 33 36 37 40 40 39 37 34 33 29 25 23 21 20 19 18 16 14
242 238 238 239 238 237 234 235 236 237 236 235 230 229 231 219 210 219 228 230 222 226 234 224 214 220 231 221 211 221 217 215 219 217 219 218 217 222 223 221 221 229 237 241 232 215 200 192 203 199 179 155 32 145 149 60 27 7 357 83 356 350 1 354 11 32 37 36 37 34 33 29 24 22 19 18 14 12 13 12 13 12 12 10 7
242 240 241 241 242 239 235 233 233 234 234 234 231 228 231 225 217 220 228 231 227 232 233 215 212 222 223 211 210 219 217 220 229 225 221 217 215 224 229 227 233 240 236 234 227 210 194 189 204 197 167 136 299 174 176 235 149 166 164 149 315 354 8 12 29 38 37 34 30 24 19 13 8 5 2 360 359 1 4 6 7 6 5 4 2
242 240 241 242 244 242 239 235 232 233 233 232 231 229 232 229 220 218 220 228 231 229 220 207 218 227 207 202 211 214 211 219 230 230 223 217 218 223 223 230 251 250 229 217 206 192 190 195 198 201 209 281 268 189 178 185 168 176 184 218 290 37 29 31 36 32 33 26 13 10 5 359 357 355 353 351 352 354 357 359 360 1 1 360 357
242 239 240 242 244 244 243 241 236 234 232 232 229 222 227 229 224 219 217 221 217 205 196 200 219 226 213 208 214 218 219 219 222 228 226 216 217 220 218 236 246 222 203 196 190 190 206 215 210 225 257 267 252 198 172 178 186 194 190 223 17 59 45 33 31 24 22 4 355 354 347 348 349 349 349 349 351 353 356 357 358 357 356 355 354
242 239 240 241 241 243 244 243 238 235 231 230 225 216 222 227 225 225 217 209 202 197 204 220 230 234 230 223 221 223 224 223 221 224 223 212 210 219 227 239 224 197 195 205 205 206 205 217 229 234 238 240 230 196 177 185 193 193 177 152 75 64 51 22 13 9 357 337 336 335 336 343 344 346 349 350 354 357 359 360 359 357 355 355 355
241 239 240 241 240 239 241 240 235 233 230 226 221 217 223 224 218 219 215 208 209 217 232 240 239 237 232 221 218 222 225 231 229 216 213 210 208 218 220 215 205 201 219 224 207 202 204 214 228 225 211 201 199 189 180 185 180 171 172 168 156 163 232 315 335 331 320 318 325 331 340 345 347 350 351 354 358 360 360 360 359 358 359 359 359
241 239 239 240 239 238 239 236 232 230 227 223 218 217 221 216 207 211 218 220 220 224 233 239 240 238 234 220 215 222 226 228 226 207 201 203 206 212 207 200 207 216 221 213 197 202 212 216 217 212 203 186 174 179 180 181 176 169 176 189 190 197 225 252 275 295 308 324 335 341 344 347 350 351 352 357 360 358 358 358 360 2 3 3 2
242 238 239 239 238 237 237 235 230 227 223 221 218 216 218 212 204 213 226 227 220 220 225 227 228 232 242 237 223 222 223 216 210 202 198 201 206 211 208 207 216 216 206 201 202 205 209 210 201 191 193 185 170 174 179 180 190 187 182 190 197 203 225 242 265 296 316 330 336 340 343 346 348 350 355 359 358 356 357 359 2 4 5 5 5
243 239 239 238 237 235 234 234 231 227 222 221 218 213 217 218 210 215 225 220 213 214 214 217 225 234 248 248 226 218 217 208 206 206 206 209 211 211 210 210 209 198 192 197 200 199 195 190 184 173 174 181 176 176 178 179 194 202 193 194 198 203 225 243 260 283 305 322 327 333 340 344 348 351 356 357 357 357 359 2 4 5 5 4 5
243 240 239 238 237 233 233 232 229 227 221 218 217 211 217 223 216 216 223 216 211 212 216 229 238 240 247 244 223 217 209 202 207 209 206 205 204 203 200 197 193 186 187 190 186 184 176 168 170 172 170 174 179 179 178 181 193 200 195 201 205 206 224 241 255 273 294 309 317 328 338 342 346 350 354 355 356 358 360 3 4 3 4 4 4
243 240 237 236 236 232 231 229 225 225 219 216 216 212 217 221 213 216 222 216 214 220 228 233 229 231 243 240 224 218 206 201 206 202 195 191 193 196 190 184 182 180 182 182 177 172 168 164 165 167 164 167 174 175 179 186 198 202 197 198 207 215 226 239 249 266 281 291 308 325 335 339 342 345 348 350 354 358 1 3 4 4 4 4 4
245 242 238 236 235 232 230 227 222 221 220 219 214 211 217 219 214 217 219 215 218 228 230 225 223 236 244 233 220 212 202 203 201 192 188 185 189 194 189 186 181 174 174 175 173 168 167 166 159 154 151 154 167 174 179 188 199 207 212 210 213 228 240 243 243 256 269 276 300 320 329 332 335 338 341 347 355 1 4 6 6 5 4 3 2
249 245 240 236 235 232 229 226 223 220 219 221 216 214 219 222 219 217 214 214 221 230 230 226 232 245 240 222 216 207 200 203 195 185 185 186 191 193 191 188 177 169 169 172 173 169 166 159 150 151 152 149 161 174 177 188 202 208 223 239 244 254 256 242 233 234 249 264 282 301 314 318 323 331 339 351 3 7 9 9 6 3 1 360 358
249 245 239 235 233 232 229 226 225 224 221 221 219 218 220 222 219 217 218 224 229 231 227 227 237 245 234 218 213 205 197 194 188 182 183 188 193 193 188 181 172 168 170 174 173 167 160 154 150 153 156 154 156 168 176 186 202 210 225 244 253 262 265 249 240 231 230 247 260 271 290 298 311 331 343 357 8 9 7 5 360 357 356 354 353
245 243 239 234 232 230 228 225 224 226 225 221 219 220 223 221 217 219 230 234 231 228 229 236 244 239 226 214 208 201 191 185 185 182 183 191 195 191 182 175 171 171 171 172 169 162 158 156 154 154 157 155 149 158 170 171 191 214 226 241 248 253 256 249 245 238 230 228 228 238 264 285 315 338 347 357 6 5 359 355 351 350 352 351 350
243 244 241 236 232 229 226 223 223 226 226 221 216 217 221 220 219 224 229 227 225 230 239 246 244 228 216 210 203 196 187 183 185 186 188 192 191 184 178 175 175 173 169 169 166 160 159 159 155 152 154 150 142 147 154 157 180 213 224 237 242 242 242 238 234 233 230 217 208 216 246 288 322 334 343 354 357 354 348 346 345 346 349 349 348
243 244 242 236 231 228 226 224 224 224 225 223 218 216 218 220 222 223 223 224 230 236 234 237 237 221 212 207 199 193 188 185 187 190 191 188 184 180 179 178 177 173 168 169 167 163 161 159 153 149 147 142 135 136 137 146 197 242 246 249 251 249 249 249 251 256 257 238 206 203 218 265 307 322 332 342 347 345 339 338 341 344 346 345 346
242 242 241 235 230 229 228 227 226 224 222 223 221 218 219 221 222 221 224 230 233 229 224 231 234 219 209 204 197 193 191 189 190 191 187 182 181 181 180 180 178 173 170 170 169 166 162 157 152 146 142 137 127 116 97 45 322 290 272 267 268 273 279 281 286 293 293 286 269 246 240 253 291 311 316 324 331 332 329 331 334 338 340 341 342
Height
1569 1569 1571 1572 1572 1573 1574 1575 1575 1576 1576 1577 1577 1577 1577 1577 1577 1576 1577 1576 1577 1577 1576 1576 1576 1576 1576 1576 1576 1576 1576 1576 1575 1575 1575 1575 1574 1574 1573 1573 1573 1573 1573 1573 1573 1573 1572 1572 1572 1573 1573 1573 1573 1574 1575 1575 1575 1576 1576 1576 1576 1576 1576 1576 1576 1576 1576 1576 1576 1576 1576 1575 1575 1575 1575 1575 1575 1575 1575 1574 1574 1574 1573 1573 1574
1569 1569 1570 1572 1572 1573 1574 1575 1575 1576 1576 1577 1577 1578 1578 1577 1577 1577 1577 1577 1577 1577 1577 1577 1577 1577 1577 1577 1577 1577 1577 1576 1576 1576 1576 1576 1575 1575 1574 1574 1574 1573 1573 1574 1574 1574 1573 1573 1573 1574 1574 1574 1574 1575 1576 1576 1576 1577 1577 1577 1577 1577 1577 1578 1577 1577 1577 1577 1577 1577 1577 1577 1577 1576 1576 1576 1576 1576 1575 1575 1575 1575 1574 1575 1575
1569 1570 1571 1572 1572 1573 1574 1575 1576 1576 1576 1577 1578 1578 1578 1578 1578 1578 1578 1578 1578 1578 1578 1578 1578 1578 1578 1578 1578 1578 1578 1577 1577 1577 1577 1577 1576 1576 1575 1575 1574 1574 1574 1574 1574 1574 1574 1574 1574 1574 1575 1575 1575 1576 1577 1577 1577 1578 1578 1578 1578 1578 1578 1578 1578 1578 1578 1578 1578 1578 1578 1578 1577 1577 1577 1577 1577 1577 1576 1576 1576 1575 1575 1576 1576
1570 1570 1571 1572 1573 1574 1574 1575 1576 1577 1577 1577 1578 1578 1578 1578 1578 1578 1578 1578 1579 1579 1579 1579 1579 1579 1579 1579 1579 1579 1579 1578 1578 1578 1578 1577 1577 1577 1576 1576 1575 1575 1575 1575 1575 1575 1575 1575 1575 1575 1575 1575 1576 1577 1577 1578 1578 1579 1579 1579 1579 1579 1579 1579 1579 1579 1579 1579 1579 1579 1578 1578 1578 1578 1578 1578 1578 1577 1577 1577 1576 1576 1576 1576 1576
1570 1571 1571 1573 1573 1574 1575 1575 1576 1577 1577 1578 1579 1579 1579 1579 1579 1579 1579 1579 1579 1580 1580 1580 1580 1580 1580 1580 1580 1580 1579 1579 1579 1578 1578 1578 1578 1578 1578 1577 1576 1576 1575 1576 1576 1576 1576 1576 1576 1576 1576 1576 1577 1577 1578 1579 1579 1579 1579 1580 1579 1579 1579 1579 1579 1579 1579 1579 1579 1579 1579 1579 1578 1578 1578 1579 1578 1578 1578 1577 1577 1577 1577 1577 1576
1570 1571 1571 1573 1573 1574 1575 1575 1576 1577 1577 1578 1579 1579 1579 1579 1579 1579 1579 1580 1580 1580 1580 1581 1581 1581 1581 1581 1581 1580 1580 1580 1580 1580 1579 1579 1579 1579 1579 1578 1577 1577 1576 1576 1576 1577 1577 1577 1577 1576 1576 1577 1577 1578 1579 1579 1580 1580 1580 1580 1580 1580 1580 1580 1580 1580 1580 1580 1580 1580 1579 1579 1579 1579 1579 1579 1579 1579 1578 1578 1578 1577 1577 1577 1577
1570 1571 1572 1573 1573 1574 1575 1575 1576 1577 1578 1579 1580 1580 1580 1580 1580 1580 1580 1580 1581 1581 1581 1581 1582 1582 1582 1582 1582 1582 1581 1581 1581 1581 1581 1581 1581 1581 1580 1579 1578 1578 1578 1577 1578 1578 1578 1578 1578 1577 1577 1578 1578 1579 1579 1580 1580 1580 1581 1581 1581 1581 1581 1580 1580 1580 1581 1581 1580 1580 1580 1580 1580 1580 1580 1580 1579 1579 1579 1579 1578 1578 1578 1578 1578
1570 1572 1572 1573 1574 1574 1575 1576 1577 1578 1579 1580 1580 1580 1580 1580 1580 1581 1581 1581 1581 1582 1582 1582 1582 1583 1583 1583 1583 1583 1583 1583 1583 1582 1582 1582 1582 1582 1581 1581 1580 1579 1579 1579 1579 1579 1579 1579 1579 1579 1579 1579 1579 1580 1580 1580 1581 1581 1582 1582 1582 1582 1581 1581 1581 1581 1581 1581 1581 1581 1581 1581 1581 1580 1580 1580 1580 1580 1580 1579 1579 1579 1579 1579 1579
1570 1572 1573 1574 1574 1575 1576 1577 1577 1578 1579 1580 1580 1580 1581 1581 1581 1581 1582 1582 1582 1583 1583 1583 1584 1584 1584 1584 1584 1584 1584 1584 1584 1584 1583 1583 1583 1583 1582 1582 1581 1581 1580 1580 1581 1581 1581 1580 1580 1580 1580 1580 1580 1580 1581 1581 1582 1582 1582 1582 1582 1582 1582 1582 1583 1583 1582 1582 1581 1581 1581 1581 1581 1581 1581 1581 1580 1580 1580 1580 1580 1580 1580 1579 1579
1570 1572 1573 1574 1575 1576 1577 1578 1578 1578 1579 1580 1580 1581 1581 1581 1582 1582 1583 1583 1583 1584 1584 1585 1585 1585 1585 1585 1586 1586 1586 1586 1585 1585 1584 1584 1584 1584 1583 1583 1582 1582 1582 1582 1582 1582 1582 1582 1582 1581 1581 1581 1581 1581 1582 1582 1582 1583 1583 1583 1583 1583 1583 1584 1584 1584 1583 1583 1582 1582 1582 1583 1582 1582 1582 1581 1581 1581 1580 1580 1580 1580 1580 1580 1580
1570 1571 1573 1574 1575 1576 1577 1578 1579 1579 1580 1580 1580 1581 1581 1582 1582 1583 1583 1584 1584 1585 1585 1586 1586 1586 1586 1586 1587 1587 1587 1587 1586 1586 1586 1585 1585 1585 1584 1584 1583 1583 1583 1583 1583 1583 1583 1583 1582 1582 1582 1582 1582 1582 1583 1583 1583 1584 1584 1584 1584 1584 1584 1585 1585 1584 1584 1584 1584 1583 1583 1583 1583 1583 1583 1582 1582 1582 1581 1581 1581 1581 1581 1581 1580
1570 1571 1573 1574 1575 1577 1577 1578 1579 1579 1580 1580 1581 1581 1582 1582 1582 1583 1584 1584 1585 1585 1586 1586 1587 1587 1587 1587 1588 1588 1588 1587 1587 1587 1587 1587 1586 1586 1586 1585 1585 1584 1584 1584 1584 1584 1584 1583 1583 1583 1583 1583 1583 1583 1584 1584 1585 1585 1585 1585 1585 1585 1586 1586 1586 1585 1585 1585 1585 1585 1585 1584 1584 1584 1584 1583 1583 1583 1583 1582 1582 1582 1582 1582 1581
1570 1571 1573 1574 1575 1576 1577 1578 1579 1579 1580 1580 1581 1581 1582 1582 1583 1584 1584 1585 1585 1586 1586 1587 1587 1587 1588 1588 1588 1588 1588 1588 1588 1588 1588 1588 1587 1587 1587 1586 1586 1586 1585 1585 1585 1585 1585 1585 1584 1584 1584 1584 1585 1585 1585 1586 1586 1586 1586 1586 1586 1586 1587 1587 1586 1586 1586 1586 1586 1585 1585 1585 1585 1585 1585 1585 1584 1584 1584 1584 1583 1583 1583 1583 1583
1570 1571 1572 1574 1575 1576 1577 1578 1579 1579 1580 1580 1581 1581 1582 1583 1583 1584 1584 1585 1585 1586 1587 1587 1587 1588 1588 1588 1589 1589 1589 1589 1589 1589 1588 1588 1588 1588 1588 1587 1587 1587 1586 1586 1586 1586 1586 1586 1585 1585 1585 1586 1586 1586 1586 1587 1587 1587 1587 1587 1587 1587 1588 1588 1587 1587 1587 1587 1586 1586 1586 1586 1586 1586 1586 1586 1585 1585 1585 1585 1584 1584 1584 1584 1584
1570 1571 1572 1574 1575 1576 1577 1578 1578 1579 1580 1580 1581 1582 1582 1583 1584 1584 1585 1585 1586 1586 1587 1588 1588 1588 1589 1589 1589 1589 1589 1589 1589 1589 1589 1589 1589 1589 1589 1588 1588 1588 1587 1587 1587 1587 1587 1587 1586 1586 1587 1587 1587 1587 1587 1587 1588 1588 1588 1588 1588 1588 1588 1588 1588 1588 1587 1587 1587 1587 1586 1586 1587 1587 1587 1587 1586 1586 1586 1586 1585 1585 1585 1585 1584
1569 1571 1572 1573 1574 1575 1576 1577 1578 1579 1580 1580 1581 1582 1582 1583 1584 1584 1585 1585 1586 1587 1588 1588 1588 1589 1589 1589 1589 1589 1590 1589 1590 1590 1590 1590 1590 1590 1589 1589 1589 1589 1588 1588 1588 1588 1588 1588 1587 1587 1587 1588 1588 1588 1588 1588 1588 1588 1588 1588 1589 1589 1589 1589 1589 1588 1588 1587 1587 1587 1587 1587 1588 1588 1588 1588 1588 1588 1587 1587 1587 1586 1586 1586 1585
1569 1571 1572 1573 1574 1575 1576 1577 1578 1578 1579 1580 1581 1582 1583 1583 1584 1585 1585 1585 1586 1587 1587 1588 1588 1589 1589 1589 1589 1590 1590 1590 1590 1590 1590 1590 1590 1590 1590 1590 1590 1589 1589 1589 1589 1589 1589 1588 1588 1588 1588 1588 1589 1589 1589 1589 1589 1589 1589 1589 1589 1590 1590 1590 1589 1589 1588 1588 1588 1588 1588 1589 1589 1589 1589 1589 1590 1590 1589 1589 1589 1588 1587 1587 1587
1569 1570 1571 1572 1573 1574 1575 1576 1577 1578 1579 1580 1581 1581 1582 1583 1583 1584 1585 1585 1586 1587 1587 1588 1588 1589 1589 1590 1590 1590 1590 1590 1591 1591 1591 1591 1591 1591 1591 1591 1591 1590 1590 1590 1590 1590 1590 1590 1590 1589 1589 1589 1589 1589 1589 1590 1590 1590 1590 1590 1590 1590 1590 1590 1590 1589 1589 1589 1589 1589 1589 1590 1590 1590 1590 1590 1591 1591 1591 1590 1590 1590 1589 1589 1588
1568 1569 1570 1571 1572 1573 1574 1576 1576 1578 1578 1579 1580 1581 1582 1582 1583 1584 1584 1585 1586 1586 1587 1588 1588 1589 1589 1590 1590 1590 1590 1591 1591 1591 1591 1591 1592 1591 1591 1592 1591 1591 1591 1591 1591 1591 1591 1591 1591 1591 1591 1591 1591 1590 1590 1590 1590 1591 1591 1591 1591 1591 1591 1591 1591 1590 1590 1590 1590 1590 1590 1591 1591 1591 1591 1591 1591 1591 1591 1591 1591 1591 1591 1591 1590
1567 1568 1569 1570 1572 1573 1574 1574 1575 1577 1578 1578 1579 1580 1581 1582 1583 1583 1584 1585 1585 1586 1587 1588 1588 1589 1589 1590 1590 1590 1590 1591 1591 1592 1592 1592 1592 1592 1592 1592 1592 1592 1592 1592 1592 1592 1592 1592 1592 1592 1592 1592 1591 1591 1591 1591 1591 1591 1592 1592 1592 1592 1592 1592 1592 1592 1591 1591 1591 1591 1591 1591 1591 1591 1591 1591 1591 1591 1591 1591 1591 1591 1591 1591 1590
1566 1567 1568 1569 1571 1572 1573 1574 1574 1575 1576 1577 1578 1579 1580 1581 1582 1583 1584 1584 1585 1586 1586 1587 1588 1589 1589 1590 1590 1590 1590 1591 1592 1592 1592 1592 1592 1592 1593 1593 1593 1593 1593 1593 1593 1593 1593 1593 1593 1593 1593 1592 1592 1592 1592 1592 1592 1593 1593 1593 1593 1593 1593 1593 1593 1592 1592 1592 1592 1592 1592 1592 1592 1592 1592 1592 1592 1592 1592 1592 1592 1592 1592 1591 1591
1565 1566 1567 1568 1570 1571 1572 1573 1573 1574 1575 1576 1577 1578 1579 1580 1581 1582 1583 1584 1584 1585 1586 1587 1587 1588 1589 1589 1590 1590 1591 1591 1592 1592 1593 1593 1593 1593 1593 1593 1594 1594 1594 1594 1594 1594 1594 1594 1594 1594 1594 1594 1593 1593 1594 1594 1594 1594 1594 1595 1595 1594 1594 1594 1593 1593 1593 1593 1592 1593 1593 1593 1593 1593 1592 1592 1592 1592 1592 1592 1592 1592 1592 1592 1591
1564 1565 1566 1567 1568 1569 1570 1571 1572 1572 1574 1575 1576 1577 1578 1579 1580 1581 1582 1583 1584 1584 1585 1586 1587 1587 1588 1589 1589 1590 1590 1591 1592 1592 1593 1593 1593 1593 1594 1594 1594 1594 1595 1595 1595 1595 1595 1595 1595 1595 1595 1595 1595 1595 1595 1595 1595 1595 1596 1596 1595 1595 1595 1595 1594 1594 1594 1593 1593 1594 1594 1593 1593 1593 1593 1593 1593 1593 1592 1592 1592 1592 1592 1591 1591
1564 1564 1565 1566 1567 1568 1568 1569 1570 1571 1573 1575 1575 1575 1577 1578 1579 1580 1581 1582 1583 1584 1584 1585 1586 1587 1587 1588 1589 1590 1590 1591 1592 1592 1593 1593 1593 1594 1594 1594 1595 1595 1595 1595 1595 1595 1596 1596 1596 1596 1596 1596 1596 1596 1596 1596 1596 1597 1597 1596 1596 1596 1596 1595 1595 1595 1594 1594 1594 1594 1594 1594 1594 1594 1594 1594 1593 1593 1593 1593 1592 1592 1592 1591 1591
1563 1564 1565 1566 1566 1567 1568 1568 1569 1570 1572 1574 1574 1574 1576 1577 1578 1579 1580 1581 1582 1583 1584 1585 1585 1586 1587 1588 1588 1589 1590 1590 1591 1592 1592 1593 1593 1594 1594 1594 1595 1595 1595 1595 1596 1596 1596 1596 1597 1597 1597 1597 1597 1597 1597 1598 1598 1598 1598 1597 1597 1597 1597 1596 1596 1596 1595 1595 1595 1595 1595 1595 1595 1595 1595 1595 1594 1594 1594 1594 1593 1593 1592 1592 1591
1562 1563 1564 1565 1566 1566 1567 1568 1569 1570 1570 1572 1573 1573 1575 1575 1576 1578 1579 1580 1581 1582 1583 1584 1585 1586 1586 1587 1588 1589 1589 1590 1591 1591 1592 1593 1593 1593 1594 1594 1594 1595 1595 1596 1596 1596 1596 1596 1597 1597 1597 1597 1597 1597 1598 1598 1598 1598 1598 1598 1598 1598 1598 1597 1597 1596 1596 1596 1596 1596 1595 1595 1595 1595 1596 1595 1595 1595 1595 1595 1594 1593 1593 1593 1592
1560 1561 1562 1563 1564 1565 1566 1567 1568 1569 1570 1570 1571 1572 1573 1574 1575 1576 1577 1578 1579 1580 1582 1583 1584 1585 1585 1586 1588 1589 1589 1589 1590 1591 1591 1592 1593 1593 1594 1594 1594 1595 1595 1596 1596 1596 1596 1597 1597 1597 1597 1598 1598 1598 1598 1598 1599 1599 1599 1599 1599 1599 1598 1598 1598 1597 1597 1597 1597 1596 1596 1596 1596 1596 1596 1595 1595 1595 1595 1595 1595 1594 1594 1593 1593
1559 1560 1561 1562 1563 1564 1565 1566 1566 1567 1568 1569 1570 1571 1572 1573 1574 1574 1576 1577 1578 1579 1580 1581 1582 1583 1584 1586 1587 1588 1588 1589 1590 1590 1591 1592 1592 1593 1594 1594 1594 1595 1595 1596 1596 1596 1597 1597 1597 1597 1597 1598 1598 1598 1598 1598 1599 1599 1599 1599 1599 1599 1599 1599 1598 1598 1598 1597 1597 1597 1596 1596 1596 1596 1596 1596 1596 1595 1595 1595 1595 1595 1594 1593 1593
1558 1559 1560 1560 1561 1562 1563 1564 1565 1566 1567 1568 1569 1570 1571 1573 1573 1573 1574 1575 1576 1578 1579 1580 1581 1582 1583 1585 1586 1587 1588 1588 1589 1590 1590 1591 1592 1592 1593 1594 1594 1595 1595 1595 1596 1597 1597 1597 1596 1596 1597 1598 1598 1598 1598 1599 1599 1599 1600 1600 1600 1600 1599 1599 1599 1598 1598 1598 1597 1597 1596 1596 1596 1596 1596 1596 1595 1595 1595 1595 1595 1595 1595 1593 1593
1557 1558 1558 1559 1560 1560 1561 1562 1563 1564 1565 1566 1567 1568 1569 1571 1573 1572 1572 1574 1575 1576 1577 1579 1580 1582 1582 1584 1585 1586 1587 1588 1588 1589 1590 1591 1591 1592 1592 1593 1594 1594 1595 1595 1596 1596 1597 1597 1597 1596 1597 1598 1598 1598 1599 1599 1600 1600 1600 1601 1601 1600 1600 1600 1599 1599 1598 1598 1597 1597 1597 1597 1596 1596 1596 1596 1596 1596 1596 1595 1595 1595 1595 1594 1593
1555 1556 1557 1558 1558 1559 1559 1560 1561 1562 1563 1564 1565 1566 1567 1569 1571 1571 1571 1572 1574 1575 1576 1577 1579 1581 1581 1583 1584 1585 1586 1587 1587 1588 1589 1590 1590 1591 1591 1592 1594 1594 1594 1595 1595 1596 1596 1597 1597 1597 1597 1598 1598 1599 1599 1600 1600 1600 1601 1601 1601 1601 1600 1600 1599 1599 1598 1598 1598 1597 1597 1597 1597 1597 1597 1597 1596 1596 1596 1596 1596 1595 1595 1594 1593
1554 1555 1556 1556 1557 1557 1558 1558 1559 1560 1561 1562 1563 1564 1565 1567 1569 1570 1570 1571 1573 1574 1576 1576 1577 1578 1580 1581 1583 1583 1584 1585 1586 1587 1588 1589 1589 1590 1591 1592 1593 1593 1594 1594 1595 1596 1596 1596 1597 1597 1597 1597 1598 1599 1599 1600 1600 1600 1601 1601 1601 1601 1600 1600 1600 1599 1599 1598 1598 1598 1598 1598 1598 1598 1597 1597 1597 1597 1596 1596 1596 1596 1595 1595 1594
1552 1553 1554 1554 1555 1556 1556 1557 1557 1558 1559 1560 1561 1562 1563 1565 1567 1568 1569 1570 1572 1573 1574 1575 1576 1577 1578 1579 1581 1582 1583 1584 1585 1586 1587 1588 1589 1589 1590 1591 1592 1592 1593 1594 1595 1595 1595 1596 1596 1596 1596 1597 1597 1598 1599 1600 1600 1600 1600 1600 1601 1601 1601 1601 1600 1600 1599 1599 1599 1599 1598 1598 1598 1598 1598 1597 1597 1597 1597 1596 1596 1596 1595 1595 1594
1550 1551 1551 1552 1553 1554 1554 1555 1555 1555 1556 1557 1558 1559 1561 1563 1565 1566 1567 1569 1571 1571 1572 1573 1574 1576 1577 1578 1580 1581 1582 1583 1584 1585 1586 1587 1588 1588 1589 1590 1591 1591 1592 1593 1594 1594 1595 1595 1596 1596 1596 1596 1597 1598 1598 1599 1600 1600 1600 1600 1601 1601 1601 1601 1600 1600 1599 1599 1599 1599 1598 1598 1598 1598 1597 1597 1597 1597 1597 1596 1596 1596 1595 1595 1594
1547 1548 1549 1550 1551 1551 1552 1552 1553 1553 1554 1555 1556 1557 1559 1561 1563 1565 1566 1567 1568 1569 1570 1572 1573 1574 1575 1577 1578 1580 1580 1581 1583 1584 1585 1586 1586 1587 1588 1588 1589 1590 1591 1592 1592 1593 1594 1595 1595 1596 1595 1595 1596 1597 1598 1598 1599 1600 1600 1600 1600 1600 1601 1600 1600 1600 1599 1599 1599 1599 1599 1598 1598 1598 1597 1597 1597 1597 1596 1596 1596 1595 1595 1594 1594
1545 1546 1547 1548 1548 1549 1549 1550 1550 1551 1552 1553 1554 1556 1557 1559 1561 1563 1565 1566 1567 1567 1569 1570 1571 1573 1574 1575 1576 1578 1579 1579 1581 1581 1583 1584 1585 1585 1586 1587 1587 1588 1588 1590 1591 1592 1594 1594 1595 1595 1595 1595 1596 1596 1597 1598 1599 1599 1600 1600 1600 1600 1600 1600 1600 1600 1600 1599 1599 1599 1599 1599 1598 1598 1597 1597 1597 1596 1596 1596 1595 1595 1594 1594 1593
1542 1544 1544 1545 1546 1547 1547 1548 1548 1549 1550 1551 1553 1555 1556 1557 1559 1562 1563 1565 1566 1567 1568 1569 1569 1571 1573 1574 1575 1576 1576 1578 1579 1579 1580 1582 1583 1584 1585 1586 1586 1587 1588 1589 1590 1591 1593 1594 1594 1595 1595 1595 1595 1596 1597 1598 1598 1599 1599 1599 1600 1600 1600 1601 1600 1600 1600 1600 1599 1599 1599 1598 1598 1598 1597 1597 1596 1596 1596 1595 1595 1594 1594 1593 1592
1540 1541 1542 1543 1543 1544 1545 1546 1546 1547 1549 1549 1551 1553 1555 1556 1558 1560 1562 1564 1565 1565 1566 1567 1568 1569 1570 1572 1572 1573 1574 1575 1576 1577 1578 1580 1581 1582 1583 1584 1585 1586 1587 1589 1590 1591 1592 1593 1593 1594 1594 1595 1595 1595 1596 1597 1598 1598 1599 1599 1600 1600 1600 1601 1601 1600 1600 1599 1599 1599 1598 1598 1598 1598 1597 1597 1596 1595 1595 1594 1594 1593 1593 1592 1591
1537 1539 1540 1540 1541 1542 1542 1543 1544 1545 1546 1548 1549 1552 1553 1555 1557 1558 1560 1562 1563 1564 1564 1565 1566 1567 1568 1570 1570 1572 1573 1573 1574 1575 1576 1578 1579 1581 1582 1583 1584 1585 1586 1587 1588 1590 1591 1592 1592 1593 1594 1594 1594 1595 1595 1596 1597 1598 1599 1599 1600 1600 1600 1601 1601 1600 1600 1600 1599 1598 1598 1597 1597 1597 1596 1596 1595 1594 1594 1593 1592 1592 1591 1591 1590
1535 1536 1537 1538 1539 1539 1540 1541 1542 1543 1544 1545 1547 1549 1551 1553 1555 1556 1557 1559 1561 1562 1563 1564 1565 1566 1567 1568 1569 1570 1571 1572 1573 1574 1575 1576 1578 1580 1581 1582 1582 1583 1584 1586 1587 1589 1590 1591 1591 1592 1592 1593 1594 1595 1595 1596 1597 1598 1599 1599 1600 1600 1600 1600 1600 1600 1600 1599 1598 1598 1597 1597 1596 1596 1595 1595 1594 1594 1593 1593 1592 1591 1590 1590 1589
1532 1533 1534 1535 1536 1537 1538 1539 1540 1541 1542 1543 1545 1546 1548 1550 1553 1554 1555 1557 1558 1560 1562 1563 1564 1564 1565 1566 1567 1568 1569 1571 1572 1573 1574 1575 1577 1578 1579 1580 1581 1582 1583 1584 1586 1587 1588 1589 1590 1591 1592 1593 1593 1594 1595 1596 1597 1598 1598 1599 1599 1599 1600 1600 1600 1600 1599 1599 1598 1597 1597 1596 1595 1595 1594 1594 1594 1593 1593 1592 1591 1590 1590 1589 1589
1528 1530 1531 1532 1533 1534 1535 1536 1537 1539 1540 1541 1543 1545 1547 1548 1551 1552 1554 1555 1556 1558 1560 1561 1562 1563 1564 1564 1565 1566 1567 1569 1570 1571 1573 1574 1575 1576 1577 1578 1579 1580 1582 1583 1584 1586 1587 1588 1589 1590 1591 1592 1593 1593 1595 1595 1596 1597 1597 1598 1598 1599 1599 1599 1599 1599 1599 1598 1597 1597 1596 1595 1594 1594 1593 1593 1593 1593 1592 1591 1590 1590 1589 1588 1587
1525 1527 1529 1530 1531 1532 1533 1534 1535 1536 1538 1539 1541 1543 1545 1547 1549 1551 1552 1554 1555 1557 1558 1559 1561 1562 1563 1563 1564 1565 1566 1567 1569 1570 1571 1572 1573 1575 1575 1576 1577 1578 1580 1581 1582 1584 1585 1587 1588 1589 1590 1591 1592 1593 1594 1595 1595 1596 1597 1597 1598 1598 1598 1598 1598 1598 1598 1598 1597 1596 1595 1594 1593 1593 1593 1593 1592 1592 1591 1590 1590 1589 1588 1587 1586
1522 1523 1525 1526 1527 1529 1530 1531 1532 1534 1536 1537 1539 1541 1543 1545 1547 1549 1551 1553 1554 1555 1556 1558 1559 1560 1561 1562 1563 1564 1565 1566 1567 1568 1570 1571 1572 1573 1574 1575 1576 1577 1579 1580 1581 1583 1585 1586 1588 1589 1589 1590 1591 1592 1593 1594 1594 1595 1596 1596 1597 1597 1597 1597 1596 1597 1597 1597 1596 1595 1595 1594 1593 1592 1592 1592 1592 1591 1591 1590 1589 1588 1587 1586 1586
1517 1519 1521 1523 1524 1526 1527 1528 1530 1531 1533 1535 1537 1539 1541 1543 1545 1547 1548 1550 1551 1552 1553 1555 1556 1557 1559 1561 1561 1562 1564 1565 1566 1568 1569 1570 1571 1573 1573 1574 1575 1576 1578 1580 1581 1583 1584 1586 1587 1588 1589 1590 1591 1591 1592 1593 1593 1594 1594 1595 1596 1596 1595 1595 1595 1596 1596 1595 1595 1594 1594 1593 1592 1592 1592 1592 1591 1591 1590 1589 1588 1587 1586 1585 1585
1513 1516 1518 1520 1521 1523 1524 1526 1527 1529 1531 1532 1535 1537 1539 1541 1542 1543 1545 1546 1548 1549 1550 1552 1554 1556 1557 1558 1560 1561 1562 1564 1565 1566 1568 1569 1571 1572 1573 1573 1575 1576 1577 1579 1581 1582 1583 1585 1586 1587 1589 1589 1590 1591 1591 1592 1592 1593 1593 1593 1594 1594 1593 1594 1594 1594 1594 1594 1594 1594 1593 1593 1592 1592 1591 1591 1591 1590 1589 1588 1587 1586 1585 1584 1584
1510 1512 1514 1516 1518 1520 1521 1523 1524 1526 1528 1530 1532 1535 1537 1539 1540 1542 1544 1545 1546 1548 1549 1551 1553 1554 1555 1556 1558 1559 1561 1562 1563 1565 1567 1569 1570 1571 1572 1573 1574 1576 1577 1579 1580 1581 1582 1583 1585 1587 1588 1589 1589 1590 1590 1591 1591 1591 1592 1592 1592 1592 1592 1592 1592 1592 1593 1593 1593 1593 1593 1592 1592 1591 1591 1590 1590 1589 1588 1588 1587 1586 1585 1584 1583
1507 1508 1510 1513 1515 1517 1519 1520 1522 1523 1525 1527 1530 1532 1534 1536 1538 1541 1543 1543 1545 1546 1548 1550 1551 1552 1553 1554 1556 1557 1559 1561 1562 1564 1565 1567 1569 1570 1571 1572 1574 1575 1576 1578 1579 1580 1581 1582 1584 1585 1587 1588 1588 1589 1589 1589 1589 1590 1590 1591 1591 1591 1591 1590 1591 1591 1591 1591 1592 1592 1591 1591 1590 1590 1589 1589 1589 1588 1587 1587 1586 1585 1584 1583 1582
1504 1505 1507 1510 1512 1514 1516 1518 1520 1521 1523 1526 1528 1531 1533 1535 1537 1538 1539 1541 1542 1544 1546 1547 1548 1549 1551 1552 1554 1555 1557 1559 1561 1562 1564 1566 1568 1569 1570 1571 1573 1574 1575 1577 1578 1579 1580 1582 1583 1584 1585 1586 1586 1587 1587 1587 1588 1588 1589 1589 1589 1589 1589 1589 1589 1589 1589 1589 1590 1590 1590 1589 1588 1588 1588 1588 1588 1587 1587 1586 1585 1584 1583 1582 1581
1501 1503 1505 1507 1509 1511 1513 1514 1517 1519 1521 1523 1526 1528 1531 1532 1534 1535 1537 1538 1540 1542 1544 1545 1546 1547 1549 1550 1552 1553 1555 1557 1559 1561 1563 1564 1566 1568 1570 1571 1572 1573 1574 1575 1576 1577 1579 1580 1581 1582 1583 1584 1584 1585 1585 1586 1586 1587 1587 1587 1587 1587 1587 1587 1587 1587 1587 1587 1588 1588 1588 1588 1587 1587 1586 1586 1586 1586 1585 1585 1584 1583 1582 1581 1580
1499 1500 1502 1504 1507 1508 1510 1511 1514 1516 1518 1521 1523 1525 1527 1529 1531 1533 1534 1536 1538 1539 1541 1542 1544 1545 1546 1548 1550 1552 1553 1555 1557 1559 1561 1563 1565 1567 1568 1570 1571 1572 1573 1574 1575 1576 1577 1579 1580 1581 1582 1582 1583 1583 1584 1584 1585 1585 1585 1585 1585 1585 1585 1584 1584 1584 1585 1585 1586 1587 1587 1587 1586 1586 1585 1585 1585 1585 1584 1583 1582 1582 1581 1579 1578